Погода в Светлополянске

Россия / Кировская область     59°25′07″N   52°21′40″E
темп.,
°C
ветер,
м/с
пор.,
м/с
влажн.,
%
обл.,
%
осадки,
мм/ч
давл.,
гПа
погр.,
м
19 апреля, пн
пн1900:00−3всв29814 0.0 1035274
03:00−4св28835 0.0 1037214
06:00−3всв36742 0.0 1037220
09:00+2всв34484 0.0 10371195
12:00+4всв33415 0.0 10361428
15:00+4св23415 0.0 10361433
18:00+2св24690 0.0 103573
21:00−4всв11874 0.0 103614
20 апреля, вт
вт2000:00−4вюв11905 0.0 103610
03:00−4юз11865 0.0 103710
06:000зюз11615 0.0 1036106
09:00+5зсз11424 0.0 1036854
12:00+8з12375 0.0 10341173
15:00+8зсз12375 0.0 10331257
18:00+5юз00621 0.0 103210
21:000ююв11761 0.0 103210
21 апреля, ср
ср2100:00−1ююв11800 0.0 103210
03:00−2ююв11820 0.0 103214
06:00+2юв24665 0.0 1031137
09:00+8юв464484 0.0 1030830
12:00+10ююв584041 0.0 10281306
15:00+10ююв5946100 0.0 10261213
18:00+8ююв51250100 0.0 1025716
21:00+7ююв51354100 0.0 1024863
22 апреля, чт
чт2200:00+5ю51368100 0.1 1024991
03:00+4ю51483100 0.6 1024876
06:00+3ю51396100 1.0 1023711
09:00+3ю41296100 3.2 1023770
12:00+3ю41196100 2.1 1024686
15:00+3ю41197100 2.5 1024641
18:00+3ю41197100 0.8 1024803
21:00+4ю41297100 1.1 1024692
23 апреля, пт
пт2300:00+4ю3997100 0.0 1024448
03:00+4ююв3997100 0.1 1024437
06:00+4ю41096100 0.1 1025477
09:00+6ююз3893100 0.1 1025481
12:00+7ююз3788100 0.0 1025638
15:00+8ююз3579100 0.1 1026947
18:00+6ю2692100 0.1 1026228
21:00+6ююв2695100 0.1 1026167